www.pogodaiklimat.ru

Погода и климат >> Архив погоды >> Аргентина >> Villa Reynolds


ПОГОДА в Villa Reynolds

  • Прогноз погоды в Villa Reynolds
  • Монитор погоды в Villa Reynolds
  • Климат города

АРХИВ ПОГОДЫ в Villa Reynolds

Время (UTC), дата Ветер
(напр.,м/с)
 
Видим.   Явления Облачность Т
(С)
Тd
(С)
f
(%)
Тe
(С)
Тes
(С)
Комфортность P
(гПа)
Po
(гПа)
Тmin
(С)
Tmax
(С)
R
(мм)
R24
(мм)
S
(см)
12 16.06 ЮВ 1 800 м туман 5/0
[Ac As Ci sp]
+10.0 +10.0 100 +9 +9 1004.4 947.8 +9.6 +18.1
15 16.06 СВ 1 10 км {туман} 6/0
[Ac As Cs]
+18.8 +15.3 80 +21 +26 комфорт 1003.9 948.5
18 16.06 СВ 5 15 км {туман} 5/0
[Cs]
+23.9 +14.2 55 +26 +29 жарко 1000.9 945.8
21 16.06 В 3 15 км 3/0
[Cs]
+19.5 +14.7 74 +21 +21 комфорт 1000.6 945.0
00 17.06 В 3 15 км ясно +13.9 +12.7 92 +13 +13 1001.6 945.3 +10.0 +24.0
03 17.06 СВ 2 500 м туман 5/0
[Ac As]
+12.2 +12.2 100 +11 +11 1000.7 945.0
06 17.06 Ю 3 500 м туман 5/0
[Ac As]
+12.0 +12.0 100 +10 +10 1000.6 945.4
09 17.06 ЮЗ 3 10 км {туман} ясно +9.6 +9.2 97 +7 +7 1002.3 946.5
12 17.06 ЮЗ 4 10 км {туман} ясно +10.2 +7.4 83 +8 +8 1007.0 950.4 +7.4 +13.9
15 17.06 ЮВ 5 15 км 4/1 750 м
[Sc Ac As]
+15.0 +7.2 60 +14 +16 1010.7 954.2
18 17.06 В 5 15 км ясно +15.2 +1.5 39 +14 +17 1011.0 954.5
21 17.06 ЮВ 3 15 км ясно +12.4 -4.0 32 +12 +12 1013.3 956.2
03 18.06 Ю 2 10 км ясно +1.1 -0.8 87 1021.0
09 18.06 З 4 10 км ясно -1.1 -3.6 83 1026.1
12 18.06 З 3 10 км ясно +0.7 -4.1 70 -3 -3 1029.4 969.4 -1.8 +4.2
15 18.06 Ю 7 15 км ясно +8.3 -5.3 38 +5 +6 1029.3 970.0
18 18.06 ЮВ 4 15 км ясно +10.6 -4.1 35 +9 +12 1027.5 968.8
21 18.06 Ю 3 15 км ясно +8.4 -5.5 37 +6 +6 1029.1 969.6
00 19.06 З 2 15 км ясно -1.5 -4.7 79 -5 -5 1031.5 971.0 -1.5 +11.0
03 19.06 З 3 15 км ясно -5.4 -7.6 84 -10 -10 1031.6 971.4
06 19.06 штиль 0 15 км ясно -7.0 -9.0 86 -8 -8 1030.2 970.2
09 19.06 штиль 0 15 км ясно -8.0 -9.6 88 -9 -9 1029.7 969.4
12 19.06 СЗ 3 15 км 1/0
[Ci fib]
-6.6 -8.1 89 -12 -12 1030.8 969.6 -8.8 -1.4
15 19.06 СЗ 2 15 км 3/0
[Ci fib]
+9.6 -7.3 30 +9 +15 1029.8 968.2
18 19.06 СВ 4 15 км 4/0
[Ac As Ci sp]
+15.0 -9.9 17 +14 +17 1025.9 966.6
21 19.06 СВ 5 15 км 9/0
[Ac As Ci sp]
+11.9 -7.3 25 +10 +10 1025.8 966.1
00 20.06 СВ 2 15 км 8/0
[Ac As]
+5.8 -5.0 46 +5 +5 1027.1 966.9 -6.9 +15.2
03 20.06 штиль 0 10 км 1/0
[Ci fib]
+2.0 -3.1 69 +1 +1 1025.6 967.2
06 20.06 штиль 0 10 км ясно -1.4 -6.7 67 -2 -2 1025.1 966.5
09 20.06 СЗ 3 10 км ясно -2.9 -7.8 69 -7 -7 1024.0 965.0
12 20.06 СЗ 3 10 км 5/0
[Ac As Ci sp]
-2.8 -6.9 73 -7 -7 1024.9 965.2 -4.9 +5.9
15 20.06 С 5 10 км 8/0
[Cs]
+11.9 -2.9 35 +10 +12 1021.9 963.4
18 20.06 С 5 15 км 9/0
[Cs]
+12.5 -2.6 35 +11 +13 1018.9 960.4
21 20.06 С 6 15 км 9/0
[Cs]
+10.6 -2.9 39 +8 +8 1017.9 959.0
00 21.06 С 3 15 км 8/0
[Cs]
+5.7 -2.3 56 +3 +3 1018.1 958.8 -2.8 +13.5
03 21.06 СВ 1 15 км 1/0
[Ci sp]
+0.4 -3.8 73 -1 -1 1016.7 958.4
06 21.06 Ю 1 15 км ясно +0.6 -4.9 67 -1 -1 1016.1 957.8
09 21.06 З 1 15 км ясно -2.0 -3.9 87 -4 -4 1017.1 958.4
12 21.06 СВ 3 15 км 3/0
[Ci sp]
-4.2 -5.5 91 -9 -9 1018.9 959.4 -4.6 +5.8
15 21.06 С 1 15 км 5/1 1050 м
[Sc Cs]
+10.0 -6.9 30 +10 +15 1017.2 958.6
18 21.06 СВ 4 15 км 9/3 1050 м
[Sc Ac As Cs]
+16.4 -2.3 28 +16 +18 1012.0 954.5
21 21.06 В 6 15 км 9/0
[Ac As Cs]
+10.1 +3.2 62 +7 +7 1011.3 952.9
00 22.06 штиль 0 15 км 6/0
[Cs]
+4.0 +0.2 76 +3 +3 1011.0 951.8 -4.2 +16.5
03 22.06 СЗ 4 10 км 4/0
[Cs]
+3.0 +2.0 93 -2 -2 1006.2 948.6
06 22.06 В 3 10 км 4/0
[Cs]
+5.7 +2.9 82 +3 +3 1004.6 948.0
09 22.06 В 2 10 км 3/0
[Cs]
+4.2 +2.0 86 +2 +2 1005.0 947.6
12 22.06 штиль 0 10 км 9/0
[Ac As Cs]
+1.6 0.0 89 0 +1 1007.0 948.6 +1.4 +6.9
15 22.06 В 3 12 км 4/0
[Cs]
+15.2 +6.0 54 +15 +19 1006.0 948.9
18 22.06 ЮВ 4 12 км 6/0
[Cs]
+19.8 +7.8 46 +21 +24 комфорт 1004.0 947.7
21 22.06 В 5 10 км 9/3 900 м
[Sc Ac As Cs]
+13.8 +7.1 64 +12 +12 1006.6 949.4
00 23.06 В 3 10 км 6/0
[Ac As Cs]
+9.4 +6.5 82 +7 +7 1009.5 951.4 +1.6 +20.2
03 23.06 штиль 0 10 км 5/0
[Cs]
+7.0 +6.1 94 +6 +6 1009.3 952.4
06 23.06 штиль 0 10 км 5/0
[Cs]
+6.3 +5.6 95 +5 +5 1008.8 952.2

 

Местоположение метеостанции Villa Reynolds (Аргентина): широта -33.73 долгота -65.38 высота над уровнем моря 486 м.

В архиве по умолчанию представлена погода в Villa Reynolds за последнюю неделю. Архивные данные за месяц целиком и за предыдущие месяцы, начиная с января 2011 года, Вы можете получить, выбрав интересующий диапазон дат из раскрывающегося списка и нажав кнопку "Ввод!".

Внимание! Время в таблицах - всемирное. Для получения местного времени необходимо прибавить поправку, которая в Villa Reynolds равна -3 ч.

Смотрите также архив погоды в соседних городах и на ближайших метеорологических станциях:

Погода в San Luis (Аргентина) (104 км)
Погода в Rio Cuarto (Аргентина) (125 км)
Погода в Laboulaye (Аргентина) (192 км)
Погода в Villa Dolores (Аргентина) (199 км)
Погода в General Pico (Аргентина) (265 км)
Погода в Pilar (Аргентина) (270 км)
Погода в San Martin (Аргентина) (290 км)
Погода в Cordoba (Аргентина) (291 км)
Погода в San Rafael (Аргентина) (294 км)
Погода в Marcos Juarez (Аргентина) (322 км)

Пояснения к столбцам:

Ветер - указаны скорость ветра в м/с - средняя за 10 мин, порывы в срок и между сроками (в фигурных скобках) и направление, откуда дует ветер: С - северный, СВ - северо-восточный, В - восточный, ЮВ - юго-восточный, Ю - южный, ЮЗ - юго-западный, З - западный, СЗ - северо-западный.
Видимость - горизонтальная дальность видимости в метрах или километрах. При видимости от 1 до 10 км при отсутствии осадков обычно наблюдается дымка, при ухудшении видимости до 1 км и менее - туман. В сухую погоду видимость может ухудшаться дымом, пылью или мглою.
Явления - указаны атмосферные явления, наблюдавшиеся в срок или в последний час перед сроком; фигурными скобками обозначены явления, наблюдавшиеся между сроками (за 1-3 часа до срока); квадратными скобками обозначены град или гололедные отложения с указанием их диаметра в мм.
Облачность - указаны через наклонную черту общая и нижняя облачность в баллах и высота нижней границы облаков в метрах; квадратными скобками обозначены формы облаков: Ci - перистые, Cs - перисто-слоистые, Cc - перисто-кучевые, Ac - высококучевые, As - высокослоистые, Sc - слоисто-кучевые, Ns - слоисто-дождевые, Cu - кучевые, Cb - кучево-дождевые. Подробнее классификацию облаков см. в Атласе облаков (PDF).
T - Температура воздуха - температура, измеренная на высоте 2 м над землей.
Td - Температура точки росы - температура, при понижении до которой содержащийся в воздухе водяной пар достигнет насыщения.
f - Относительная влажность воздуха - влажноcть воздуха, измеренная на высоте 2 м над землей.
Te - Эффективная температура - температура, которую ощущает одетый по сезону человек в тени. Характеристика душности погоды. При расчете учитывается влияние влажности воздуха и скорости ветра на теплоощущения человека.
Tes - Эффективная температура на солнце - температура, которую ощущает человек, с поправкой на солнечный нагрев. Характеристика знойности погоды. Зависит от высоты солнца над горизонтом, облачности и скорости ветра. Ночью, в пасмурную погоду, а также при ветре 12 м/с и более поправка равна нулю.
P - Атмосферное давление - приведенное к уровню моря атмосферное давление.
Po - Атмосферное давление - измеренное на уровне метеостанции атмосферное давление.
Tmin - Минимальная температура - минимум температуры воздуха на высоте 2 м над землей.
Tmax - Максимальная температура - максимум температуры воздуха на высоте 2 м над землей.
R - Количество осадков - Количество выпавших осадков за период времени, мм. При наведении курсора мыши на число - период времени, за который выпало указанное количество осадков.
R24 - Количество осадков - Количество выпавших осадков за 24 часа, мм.
S - Снежный покров - Высота снежного покрова, см. При наведении курсора мыши на число - состояние снежного покрова и степень покрытия местности в баллах.